[[{"header":{"parameterUnit":"m.s-1","parameterCategory":1,"la1":30.2991,"la2":30.254,"lo1":-89.0895,"lo2":-89.0444,"dy":0.0017,"dx":0.0017,"nx":28,"ny":28,"refTime":"2024-10-10T03:00:00:Z","depth":0,"parameterNumber":2,"parameterNumberName":"U-component_of_WINDS"},"data":[0,0,0,0,0,0,0,0,0,0,0,0,0,0,0,0,0,0,0,0,0,0,0,0,0,0,0,0,0,0,0,0,0,0,0,0,0,0,0,0,0,0,0,0,0,0,0,0,0,0,0,0,0,0,0,0,0,0,-1.2587,-1.2587,0,-1.2571,-1.257,-1.257,-1.257,-1.257,-1.257,-1.2571,-1.2554,-1.2553,-1.2552,0,0,0,0,0,0,0,0,0,0,0,0,0,-1.2616,-1.2616,-1.2587,-1.2587,-1.2586,-1.2571,-1.257,-1.257,-1.257,-1.257,-1.257,-1.2571,-1.2554,-1.2553,-1.2552,0,0,0,0,0,0,0,0,0,0,0,0,0,-1.2602,-1.2616,-1.2587,-1.2584,-1.2584,-1.2571,-1.257,-1.257,-1.257,-1.257,-1.257,-1.2571,-1.2554,-1.2553,-1.2552,-1.254,0,0,-1.2549,-1.2549,0,0,0,0,0,0,0,0,-1.2603,-1.2601,-1.2585,-1.2584,-1.2584,-1.2573,-1.2575,-1.256,-1.257,-1.2575,-1.2571,-1.2571,-1.256,-1.2558,-1.2555,-1.254,-1.2539,-1.2549,-1.2549,-1.2548,-1.2548,0,0,0,0,0,0,0,-1.2604,-1.2602,-1.258,-1.2585,-1.2584,-1.2584,-1.2582,-1.2572,-1.2566,-1.2575,-1.2575,-1.2573,-1.256,-1.2556,-1.2554,-1.2539,-1.2549,-1.2548,-1.2548,-1.2548,-1.2512,-1.2511,0,0,0,0,0,0,-1.2606,-1.2603,-1.2581,-1.258,-1.2594,-1.2583,-1.2581,-1.2576,-1.2566,-1.2565,-1.2573,-1.2573,-1.2557,-1.2555,-1.2554,-1.2538,-1.2548,-1.2547,-1.2547,-1.2512,-1.2512,-1.2511,0,0,0,0,0,0,-1.2606,-1.2604,-1.2581,-1.2591,-1.2588,-1.2582,-1.2576,-1.2575,-1.2571,-1.2564,-1.2563,-1.257,-1.2557,-1.2555,-1.2543,-1.2537,-1.2547,-1.2546,-1.2512,-1.2512,-1.2511,-1.2507,0,0,0,0,0,0,-1.2607,-1.2604,-1.2599,-1.2591,-1.2588,-1.2572,-1.2576,-1.2575,-1.257,-1.257,-1.2561,-1.256,-1.2557,-1.2545,-1.2542,-1.2536,-1.2545,-1.2513,-1.2512,-1.2511,-1.2508,-1.2507,-1.2506,0,0,0,0,0,-1.2608,-1.2599,-1.2599,-1.2597,-1.2582,-1.2571,-1.257,-1.2566,-1.2569,-1.2565,-1.256,-1.256,-1.2539,-1.2544,-1.2541,-1.2534,-1.2513,-1.2512,-1.2512,-1.2509,-1.2507,-1.2506,0,0,0,0,0,0,-1.2607,-1.2598,-1.2598,-1.2586,-1.258,-1.2571,-1.2565,-1.2565,-1.2557,-1.2558,-1.2554,-1.2552,-1.2541,-1.2537,-1.2542,-1.2522,-1.2526,-1.2525,-1.2525,-1.2523,-1.2522,-1.2523,-1.2545,0,0,0,0,0,-1.2606,-1.2598,-1.259,-1.258,-1.2577,-1.2572,-1.2567,-1.2565,-1.2558,-1.2555,-1.255,-1.2543,-1.2534,-1.2529,-1.2521,-1.2508,-1.2505,-1.2502,-1.2501,-1.25,-1.2498,-1.249,-1.2488,-1.2508,-1.2508,-1.2508,0,0,-1.2602,-1.2596,-1.2592,-1.258,-1.2575,-1.2566,-1.2569,-1.2561,-1.2554,-1.2554,-1.2542,-1.2538,-1.253,-1.2517,-1.2511,-1.2513,-1.2492,-1.2499,-1.2498,-1.2497,-1.2489,-1.2487,-1.2485,-1.2508,-1.2508,-1.2508,0,0,-1.2591,-1.2587,-1.2577,-1.2572,-1.2564,-1.256,-1.2558,-1.255,-1.2547,-1.2535,-1.2534,-1.2526,-1.2512,-1.2506,-1.2501,-1.2487,-1.2487,-1.2485,-1.2479,-1.2471,-1.2469,-1.2468,-1.2462,-1.246,-1.2484,-1.2484,-1.2484,0,-1.2588,-1.2576,-1.2573,-1.2564,-1.2558,-1.2557,-1.2548,-1.2543,-1.2532,-1.2528,-1.2531,-1.2512,-1.2506,-1.2492,-1.2488,-1.2485,-1.2482,-1.2486,-1.247,-1.2468,-1.2467,-1.2461,-1.2459,-1.2483,-1.2483,-1.2483,-1.2483,0,-1.2571,-1.2563,-1.2556,-1.2546,-1.254,-1.2531,-1.2526,-1.252,-1.2518,-1.2515,-1.2502,-1.2496,-1.2486,-1.2482,-1.2481,-1.2467,-1.2468,-1.247,-1.2475,-1.2464,-1.2459,-1.2457,-1.2483,-1.2483,-1.2483,-1.2483,0,0,-1.256,-1.2548,-1.2545,-1.254,-1.2531,-1.2524,-1.2514,-1.2504,-1.2499,-1.2491,-1.2483,-1.247,-1.2471,-1.2466,-1.2464,-1.2457,-1.2445,-1.2459,-1.2459,-1.2456,-1.2428,-1.2427,-1.2424,-1.2445,-1.2445,-1.2444,-1.2429,0,-1.2547,-1.253,-1.2527,-1.2512,-1.2503,-1.2502,-1.2494,-1.2487,-1.2483,-1.2474,-1.247,-1.2461,-1.2464,-1.246,-1.2453,-1.2448,-1.2439,-1.2449,-1.2436,-1.2436,-1.2438,-1.2422,-1.242,-1.2405,-1.2427,-1.2426,-1.2426,0,-1.2531,-1.2523,-1.2507,-1.2498,-1.2494,-1.2486,-1.2476,-1.2469,-1.2461,-1.2458,-1.2451,-1.245,-1.2439,-1.2444,-1.2429,-1.2436,-1.243,-1.2427,-1.2426,-1.2424,-1.243,-1.2418,-1.2401,-1.2398,-1.2423,-1.2423,-1.2424,0,-1.2523,-1.2508,-1.2496,-1.2492,-1.2481,-1.2476,-1.2471,-1.2463,-1.2457,-1.2449,-1.2444,-1.2435,-1.2429,-1.2422,-1.2417,-1.2422,-1.2402,-1.2407,-1.2399,-1.2399,-1.2395,-1.2395,-1.2375,-1.2392,-1.2392,-1.2392,-1.2392,0,-1.2509,-1.2499,-1.2492,-1.2485,-1.2473,-1.247,-1.2458,-1.2454,-1.2446,-1.2438,-1.2436,-1.2428,-1.2423,-1.2414,-1.2411,-1.2398,-1.2396,-1.2393,-1.2392,-1.2393,-1.2393,-1.2389,-1.2389,-1.2392,-1.2392,-1.2392,-1.2392,0,-1.2498,-1.2493,-1.248,-1.2471,-1.2468,-1.246,-1.2452,-1.2444,-1.244,-1.2429,-1.2426,-1.242,-1.2409,-1.2404,-1.2391,-1.2388,-1.2374,-1.2374,-1.2376,-1.2376,-1.2368,-1.2368,-1.2344,-1.234,-1.2361,-1.236,-1.236,0,-1.2489,-1.2481,-1.2471,-1.2465,-1.246,-1.2451,-1.2444,-1.244,-1.2434,-1.2423,-1.2417,-1.2406,-1.2397,-1.238,-1.2373,-1.2363,-1.2362,-1.2355,-1.2361,-1.2361,-1.2361,-1.2361,-1.236,-1.2353,-1.2353,-1.2353,-1.2353,0,-1.2473,-1.2471,-1.2462,-1.2452,-1.2445,-1.2437,-1.2429,-1.2424,-1.2418,-1.2411,-1.24,-1.2393,-1.2379,-1.2368,-1.2357,-1.2352,-1.2351,-1.2351,-1.2348,-1.2348,-1.235,-1.2348,-1.2372,-1.2351,-1.2352,-1.2352,-1.2352,-1.2352,-1.2462,-1.2455,-1.2446,-1.2436,-1.243,-1.2422,-1.2414,-1.2409,-1.24,-1.2388,-1.2386,-1.2374,-1.2365,-1.2351,-1.2345,-1.2335,-1.2337,-1.2333,-1.2332,-1.2331,-1.233,-1.2352,-1.2333,-1.2333,-1.2333,-1.2333,-1.2333,0,-1.2446,-1.244,-1.2431,-1.242,-1.2411,-1.2412,-1.2403,-1.2396,-1.2385,-1.2377,-1.2368,-1.2355,-1.2344,-1.2336,-1.2325,-1.2319,-1.2318,-1.2316,-1.2316,-1.2314,-1.233,-1.2333,-1.2316,-1.2316,-1.2316,-1.2316,-1.2316,-1.2316,-1.2436,-1.2424,-1.242,-1.2404,-1.2398,-1.2386,-1.2381,-1.2374,-1.2367,-1.2352,-1.2343,-1.2339,-1.233,-1.2318,-1.2308,-1.2306,-1.2302,-1.2299,-1.2297,-1.2312,-1.2313,-1.2315,-1.2318,-1.2299,-1.2299,-1.2283,-1.2283,-1.2282]},{"header":{"parameterUnit":"m.s-1","parameterCategory":1,"la1":30.2991,"la2":30.254,"lo1":-89.0895,"lo2":-89.0444,"dy":0.0017,"dx":0.0017,"nx":28,"ny":28,"refTime":"2024-10-10T03:00:00:Z","depth":0,"parameterNumber":3,"parameterNumberName":"V-component_of_WINDS"},"data":[0,0,0,0,0,0,0,0,0,0,0,0,0,0,0,0,0,0,0,0,0,0,0,0,0,0,0,0,0,0,0,0,0,0,0,0,0,0,0,0,0,0,0,0,0,0,0,0,0,0,0,0,0,0,0,0,0,0,-3.0752,-3.0752,0,-3.0738,-3.0738,-3.0738,-3.0706,-3.0705,-3.0704,-3.0704,-3.0689,-3.0689,-3.0689,0,0,0,0,0,0,0,0,0,0,0,0,0,-3.0751,-3.0751,-3.0752,-3.0752,-3.0752,-3.0738,-3.0738,-3.0738,-3.0706,-3.0705,-3.0704,-3.0703,-3.0689,-3.0689,-3.0689,0,0,0,0,0,0,0,0,0,0,0,0,0,-3.0746,-3.0751,-3.0752,-3.0734,-3.0732,-3.0738,-3.0738,-3.0738,-3.0706,-3.0705,-3.0704,-3.0703,-3.0689,-3.0689,-3.0689,-3.0712,0,0,-3.069,-3.069,0,0,0,0,0,0,0,0,-3.0746,-3.0746,-3.0737,-3.0735,-3.0733,-3.0723,-3.0732,-3.0729,-3.0706,-3.0716,-3.0704,-3.0702,-3.0701,-3.07,-3.07,-3.0711,-3.071,-3.069,-3.069,-3.0691,-3.0691,0,0,0,0,0,0,0,-3.0747,-3.0746,-3.0747,-3.0737,-3.0735,-3.0727,-3.0725,-3.0732,-3.0714,-3.0715,-3.0712,-3.0711,-3.07,-3.0699,-3.0699,-3.071,-3.069,-3.0691,-3.0691,-3.0691,-3.0743,-3.0744,0,0,0,0,0,0,-3.075,-3.0747,-3.0747,-3.0746,-3.0737,-3.0728,-3.0726,-3.0727,-3.0714,-3.0711,-3.0712,-3.071,-3.0699,-3.0699,-3.0698,-3.0726,-3.0691,-3.0691,-3.0691,-3.0741,-3.0743,-3.0744,0,0,0,0,0,0,-3.075,-3.075,-3.0748,-3.0746,-3.0745,-3.0729,-3.0731,-3.0727,-3.0727,-3.0712,-3.0709,-3.0715,-3.0698,-3.0698,-3.0709,-3.0725,-3.0691,-3.0691,-3.074,-3.0742,-3.0743,-3.0781,0,0,0,0,0,0,-3.075,-3.075,-3.0758,-3.0746,-3.0745,-3.0759,-3.0732,-3.0728,-3.0728,-3.0725,-3.0714,-3.0711,-3.0698,-3.0709,-3.071,-3.0725,-3.0692,-3.0739,-3.0741,-3.0743,-3.0778,-3.0784,-3.0788,0,0,0,0,0,-3.075,-3.0768,-3.0759,-3.0759,-3.0755,-3.0759,-3.0759,-3.0743,-3.0729,-3.0738,-3.0728,-3.0711,-3.0723,-3.0711,-3.0711,-3.0727,-3.0738,-3.074,-3.0743,-3.0776,-3.0783,-3.0788,0,0,0,0,0,0,-3.0781,-3.0766,-3.0755,-3.077,-3.0767,-3.0754,-3.0764,-3.075,-3.075,-3.0747,-3.0727,-3.0725,-3.074,-3.0734,-3.072,-3.0749,-3.0728,-3.0731,-3.0753,-3.0759,-3.0764,-3.0766,-3.0692,0,0,0,0,0,-3.079,-3.0795,-3.0781,-3.0796,-3.0795,-3.078,-3.0781,-3.077,-3.0765,-3.0763,-3.0754,-3.075,-3.0753,-3.0756,-3.0757,-3.0777,-3.0776,-3.0788,-3.0793,-3.0798,-3.0801,-3.0814,-3.082,-3.0753,-3.0753,-3.0753,0,0,-3.0807,-3.08,-3.0804,-3.0802,-3.0798,-3.0804,-3.0779,-3.0786,-3.0791,-3.0764,-3.0775,-3.0769,-3.0763,-3.078,-3.0787,-3.0775,-3.0819,-3.0801,-3.0804,-3.0805,-3.0817,-3.0824,-3.0829,-3.0754,-3.0754,-3.0754,0,0,-3.0844,-3.0838,-3.0851,-3.0848,-3.0842,-3.0833,-3.0836,-3.0826,-3.0821,-3.0832,-3.0813,-3.0819,-3.0824,-3.0821,-3.0821,-3.086,-3.0845,-3.0861,-3.0888,-3.0901,-3.0906,-3.0911,-3.0927,-3.0933,-3.0863,-3.0864,-3.0864,0,-3.0866,-3.0875,-3.0859,-3.0868,-3.0869,-3.0846,-3.086,-3.0858,-3.0853,-3.0854,-3.0842,-3.085,-3.0844,-3.0861,-3.0871,-3.0871,-3.0875,-3.0862,-3.0907,-3.0911,-3.0915,-3.0931,-3.0937,-3.0866,-3.0865,-3.0865,-3.0865,0,-3.0905,-3.0912,-3.0923,-3.0921,-3.0923,-3.0934,-3.092,-3.0924,-3.0913,-3.0905,-3.0918,-3.0911,-3.0912,-3.0915,-3.0904,-3.0932,-3.0926,-3.091,-3.0888,-3.0924,-3.0938,-3.0944,-3.0869,-3.0868,-3.0867,-3.0867,0,0,-3.0959,-3.095,-3.0955,-3.0955,-3.0948,-3.0953,-3.0965,-3.0967,-3.0972,-3.097,-3.098,-3.0986,-3.0973,-3.0973,-3.0961,-3.0972,-3.1007,-3.0955,-3.0955,-3.0967,-3.104,-3.1054,-3.106,-3.0997,-3.0998,-3.0998,-3.1042,0,-3.0996,-3.1015,-3.1002,-3.1024,-3.1032,-3.1011,-3.1022,-3.1019,-3.1013,-3.1019,-3.1011,-3.1017,-3.0997,-3.0998,-3.1008,-3.1,-3.1021,-3.0997,-3.1007,-3.1008,-3.1011,-3.1067,-3.1081,-3.1122,-3.1047,-3.1048,-3.1048,0,-3.104,-3.1042,-3.1065,-3.1061,-3.1063,-3.1073,-3.1075,-3.1081,-3.1078,-3.1073,-3.1074,-3.106,-3.1073,-3.1051,-3.1068,-3.1052,-3.1055,-3.1053,-3.1054,-3.1056,-3.1032,-3.1073,-3.1134,-3.1141,-3.1056,-3.1056,-3.1055,0,-3.1081,-3.1089,-3.1105,-3.1105,-3.1099,-3.1107,-3.1104,-3.1101,-3.1105,-3.1107,-3.1109,-3.1112,-3.1115,-3.1118,-3.1106,-3.109,-3.1126,-3.1102,-3.1123,-3.1124,-3.1133,-3.1133,-3.1198,-3.1132,-3.1132,-3.1132,-3.1132,0,-3.1123,-3.1139,-3.1124,-3.1133,-3.1151,-3.1136,-3.1154,-3.115,-3.1148,-3.1157,-3.1139,-3.1148,-3.1131,-3.1139,-3.113,-3.1148,-3.1148,-3.1145,-3.1143,-3.1148,-3.1149,-3.1151,-3.1149,-3.1133,-3.1133,-3.1133,-3.1132,0,-3.1172,-3.1162,-3.1179,-3.1172,-3.1171,-3.1185,-3.118,-3.1189,-3.1182,-3.1195,-3.1197,-3.1186,-3.1195,-3.1183,-3.119,-3.1184,-3.1209,-3.1201,-3.121,-3.1209,-3.1231,-3.123,-3.1302,-3.1312,-3.1238,-3.1238,-3.1239,0,-3.1201,-3.1213,-3.1209,-3.1215,-3.1214,-3.1223,-3.1227,-3.1213,-3.1218,-3.1218,-3.1228,-3.1236,-3.1241,-3.1256,-3.1249,-3.1255,-3.1249,-3.1273,-3.1249,-3.1255,-3.1252,-3.1252,-3.1255,-3.1279,-3.128,-3.128,-3.1281,0,-3.1254,-3.1249,-3.1256,-3.1262,-3.1268,-3.1271,-3.1274,-3.1279,-3.1265,-3.1272,-3.1281,-3.1286,-3.1294,-3.1303,-3.1307,-3.1305,-3.1292,-3.1289,-3.1294,-3.1301,-3.1307,-3.1306,-3.1226,-3.1287,-3.1287,-3.1286,-3.1286,-3.1286,-3.1295,-3.1306,-3.1306,-3.1315,-3.1316,-3.1319,-3.1329,-3.1324,-3.1332,-3.1339,-3.133,-3.1343,-3.1342,-3.1348,-3.1348,-3.1358,-3.1347,-3.1355,-3.1357,-3.136,-3.1364,-3.1304,-3.1358,-3.1358,-3.1358,-3.1358,-3.1357,0,-3.1349,-3.1349,-3.1358,-3.1363,-3.137,-3.1357,-3.136,-3.1367,-3.1379,-3.138,-3.1387,-3.1399,-3.1408,-3.1402,-3.141,-3.142,-3.1414,-3.1422,-3.1423,-3.1423,-3.1372,-3.1368,-3.1427,-3.1427,-3.1427,-3.1427,-3.1427,-3.1427,-3.1379,-3.1398,-3.1394,-3.1414,-3.1413,-3.1426,-3.1429,-3.1433,-3.1434,-3.145,-3.1457,-3.1454,-3.1453,-3.1461,-3.1469,-3.1468,-3.1472,-3.1484,-3.148,-3.1433,-3.1426,-3.142,-3.1415,-3.1484,-3.1484,-3.153,-3.1531,-3.1531]}]]